• In Czech Republic
  • List of Countries
  • For 7 days
  • Water Temperature
  • Satellite Maps
  • Weather Map
  • Weather Widgets
  • user-avatar
    Login

    Hourly Weather Canillo

    Today, 23 April, Monday

    Time Temperature Precipitation Wind Pressure Humidity
    00:00 +8°C° 0 mm 1 mps 620 mmHg 76%
    01:00 +7°C° 0 mm 1 mps 620 mmHg 74%
    02:00 +7°C° 0 mm 1 mps 620 mmHg 73%
    03:00 +7°C° 0 mm 1 mps 619 mmHg 72%
    04:00 +7°C° 0 mm 1 mps 620 mmHg 71%
    05:00 +7°C° 0 mm 1 mps 620 mmHg 70%
    06:00 +7°C° 0 mm 1 mps 620 mmHg 69%
    07:00 +10°C° 0 mm 1 mps 621 mmHg 62%
    08:00 +12°C° 0 mm 1 mps 622 mmHg 56%
    09:00 +15°C° 0 mm 1 mps 624 mmHg 49%
    10:00 +15°C° 0 mm 2 mps 624 mmHg 49%
    11:00 +16°C° 0 mm 2 mps 624 mmHg 48%
    12:00 +16°C° 0 mm 2 mps 624 mmHg 48%
    13:00 +16°C° 0.3 mm 2 mps 624 mmHg 51%
    14:00 +16°C° 0.3 mm 2 mps 624 mmHg 54%
    15:00 +15°C° 0.3 mm 2 mps 623 mmHg 56%
    16:00 +14°C° 0.4 mm 1 mps 623 mmHg 63%
    17:00 +13°C° 0.4 mm 1 mps 622 mmHg 69%
    18:00 +12°C° 0.4 mm 1 mps 622 mmHg 76%
    19:00 +11°C° 0.3 mm 1 mps 622 mmHg 77%
    20:00 +10°C° 0.3 mm 1 mps 621 mmHg 79%
    21:00 +8°C° 0.3 mm 0 mps 621 mmHg 81%
    22:00 +8°C° 0 mm 1 mps 621 mmHg 81%
    23:00 +8°C° 0 mm 1 mps 621 mmHg 81%

    Tomorrow, 24 April, Tuesday

    Time Temperature Precipitation Wind Pressure Humidity
    00:00 +8°C° 0 mm 1 mps 621 mmHg 81%
    01:00 +8°C° 0 mm 1 mps 621 mmHg 80%
    02:00 +8°C° 0 mm 1 mps 620 mmHg 80%
    03:00 +7°C° 0 mm 1 mps 620 mmHg 79%
    04:00 +8°C° 0 mm 1 mps 620 mmHg 78%
    05:00 +8°C° 0 mm 1 mps 620 mmHg 76%
    06:00 +8°C° 0 mm 1 mps 621 mmHg 74%
    07:00 +10°C° 0 mm 1 mps 622 mmHg 66%
    08:00 +13°C° 0 mm 1 mps 623 mmHg 58%
    09:00 +15°C° 0 mm 1 mps 624 mmHg 50%
    10:00 +16°C° 0 mm 1 mps 624 mmHg 47%
    11:00 +17°C° 0 mm 2 mps 624 mmHg 44%
    12:00 +18°C° 0 mm 2 mps 625 mmHg 42%
    13:00 +18°C° 0.2 mm 2 mps 624 mmHg 43%
    14:00 +17°C° 0.2 mm 2 mps 624 mmHg 44%
    15:00 +17°C° 0.2 mm 2 mps 624 mmHg 45%
    16:00 +16°C° 0.2 mm 2 mps 623 mmHg 53%
    17:00 +14°C° 0.2 mm 1 mps 622 mmHg 60%
    18:00 +13°C° 0.2 mm 1 mps 622 mmHg 67%
    19:00 +12°C° 0 mm 1 mps 621 mmHg 68%
    20:00 +11°C° 0 mm 1 mps 621 mmHg 70%
    21:00 +10°C° 0 mm 1 mps 621 mmHg 71%
    22:00 +9°C° 0 mm 1 mps 621 mmHg 71%
    23:00 +9°C° 0 mm 1 mps 620 mmHg 71%

    Day after tomorrow, 25 April, Wednesday

    Time Temperature Precipitation Wind Pressure Humidity
    00:00 +8°C° 0 mm 1 mps 620 mmHg 71%
    01:00 +8°C° 0 mm 1 mps 620 mmHg 70%
    02:00 +8°C° 0 mm 1 mps 620 mmHg 68%
    03:00 +8°C° 0 mm 1 mps 619 mmHg 66%
    04:00 +8°C° 0 mm 1 mps 620 mmHg 66%
    05:00 +8°C° 0 mm 1 mps 620 mmHg 65%
    06:00 +8°C° 0 mm 1 mps 620 mmHg 64%
    07:00 +11°C° 0 mm 1 mps 621 mmHg 59%
    08:00 +13°C° 0 mm 1 mps 623 mmHg 55%
    09:00 +15°C° 0 mm 1 mps 624 mmHg 50%
    10:00 +15°C° 0.1 mm 1 mps 624 mmHg 50%
    11:00 +16°C° 0.1 mm 1 mps 624 mmHg 51%
    12:00 +16°C° 0.1 mm 2 mps 624 mmHg 51%
    13:00 +16°C° 0.4 mm 1 mps 623 mmHg 55%
    14:00 +15°C° 0.4 mm 1 mps 623 mmHg 59%
    15:00 +15°C° 0.4 mm 1 mps 622 mmHg 63%
    16:00 +14°C° 0.5 mm 1 mps 622 mmHg 67%
    17:00 +13°C° 0.5 mm 1 mps 622 mmHg 72%
    18:00 +12°C° 0.5 mm 1 mps 621 mmHg 76%
    19:00 +11°C° 0.3 mm 1 mps 621 mmHg 79%
    20:00 +10°C° 0.3 mm 1 mps 621 mmHg 83%
    21:00 +9°C° 0.3 mm 1 mps 621 mmHg 86%
    22:00 +8°C° 0.1 mm 2 mps 621 mmHg 87%
    23:00 +7°C° 0.1 mm 2 mps 621 mmHg 89%

    26 April, Thursday

    Time Temperature Precipitation Wind Pressure Humidity
    00:00 +7°C° 0.1 mm 2 mps 620 mmHg 90%
    01:00 +7°C° 0.1 mm 2 mps 620 mmHg 91%
    02:00 +7°C° 0.1 mm 2 mps 620 mmHg 91%
    03:00 +6°C° 0.1 mm 2 mps 620 mmHg 92%
    04:00 +6°C° 0.1 mm 2 mps 620 mmHg 91%
    05:00 +6°C° 0.1 mm 2 mps 620 mmHg 90%
    06:00 +6°C° 0.1 mm 2 mps 620 mmHg 90%
    07:00 +7°C° 0.1 mm 2 mps 620 mmHg 85%
    08:00 +8°C° 0.1 mm 2 mps 620 mmHg 81%
    09:00 +9°C° 0.1 mm 2 mps 621 mmHg 76%
    10:00 +10°C° 0.1 mm 2 mps 621 mmHg 74%
    11:00 +10°C° 0.1 mm 2 mps 621 mmHg 71%
    12:00 +12°C° 0.1 mm 2 mps 621 mmHg 68%
    13:00 +12°C° 0.3 mm 2 mps 620 mmHg 68%
    14:00 +12°C° 0.3 mm 2 mps 620 mmHg 69%
    15:00 +12°C° 0.3 mm 2 mps 619 mmHg 69%
    16:00 +10°C° 0.3 mm 2 mps 619 mmHg 73%
    17:00 +9°C° 0.3 mm 2 mps 618 mmHg 78%
    18:00 +9°C° 0.3 mm 1 mps 618 mmHg 83%
    19:00 +8°C° 0.1 mm 1 mps 618 mmHg 86%
    20:00 +7°C° 0.1 mm 1 mps 618 mmHg 88%
    21:00 +7°C° 0.1 mm 1 mps 617 mmHg 91%
    22:00 +6°C° 0 mm 1 mps 617 mmHg 91%
    23:00 +6°C° 0 mm 1 mps 616 mmHg 91%

    27 April, Friday

    Time Temperature Precipitation Wind Pressure Humidity
    00:00 +5°C° 0 mm 1 mps 616 mmHg 90%
    01:00 +5°C° 0 mm 1 mps 615 mmHg 90%
    02:00 +5°C° 0 mm 1 mps 615 mmHg 90%
    03:00 +4°C° 0 mm 1 mps 615 mmHg 90%
    04:00 +5°C° 0 mm 1 mps 615 mmHg 89%
    05:00 +5°C° 0 mm 1 mps 615 mmHg 88%
    06:00 +6°C° 0 mm 1 mps 615 mmHg 87%
    07:00 +8°C° 0 mm 1 mps 616 mmHg 80%
    08:00 +10°C° 0 mm 1 mps 616 mmHg 72%
    09:00 +12°C° 0 mm 2 mps 617 mmHg 65%
    10:00 +12°C° 0.1 mm 2 mps 617 mmHg 63%
    11:00 +13°C° 0.1 mm 2 mps 617 mmHg 61%
    12:00 +13°C° 0.1 mm 3 mps 617 mmHg 60%
    13:00 +12°C° 0.5 mm 3 mps 617 mmHg 62%
    14:00 +12°C° 0.5 mm 3 mps 616 mmHg 65%
    15:00 +13°C° 0.5 mm 2 mps 616 mmHg 67%
    16:00 +12°C° 0.5 mm 2 mps 615 mmHg 73%
    17:00 +10°C° 0.5 mm 2 mps 615 mmHg 78%
    18:00 +9°C° 0.5 mm 2 mps 614 mmHg 84%
    19:00 +8°C° 0.4 mm 2 mps 614 mmHg 87%
    20:00 +7°C° 0.4 mm 2 mps 614 mmHg 90%
    21:00 +6°C° 0.4 mm 2 mps 614 mmHg 93%
    22:00 +6°C° 0.6 mm 2 mps 613 mmHg 93%
    23:00 +5°C° 0.6 mm 2 mps 613 mmHg 93%

    28 April, Saturday

    Time Temperature Precipitation Wind Pressure Humidity
    00:00 +5°C° 0.6 mm 2 mps 612 mmHg 93%
    01:00 +5°C° 0.2 mm 2 mps 612 mmHg 93%
    02:00 +5°C° 0.2 mm 2 mps 611 mmHg 93%
    03:00 +5°C° 0.2 mm 2 mps 611 mmHg 93%
    04:00 +5°C° 0 mm 2 mps 611 mmHg 92%
    05:00 +5°C° 0 mm 2 mps 611 mmHg 91%
    06:00 +5°C° 0 mm 2 mps 611 mmHg 91%
    07:00 +6°C° 0 mm 2 mps 611 mmHg 83%
    08:00 +8°C° 0 mm 2 mps 612 mmHg 75%
    09:00 +9°C° 0 mm 3 mps 613 mmHg 68%
    10:00 +9°C° 0.2 mm 3 mps 613 mmHg 64%
    11:00 +10°C° 0.2 mm 3 mps 613 mmHg 61%
    12:00 +10°C° 0.2 mm 4 mps 613 mmHg 58%
    13:00 +8°C° 0.1 mm 4 mps 613 mmHg 58%
    14:00 +8°C° 0.1 mm 4 mps 613 mmHg 58%
    15:00 +7°C° 0.1 mm 4 mps 613 mmHg 59%
    16:00 +5°C° 0.1 mm 3 mps 613 mmHg 65%
    17:00 +4°C° 0.1 mm 3 mps 613 mmHg 71%
    18:00 +4°C° 0.1 mm 2 mps 613 mmHg 77%
    19:00 +3°C° 0.1 mm 2 mps 613 mmHg 80%
    20:00 +1°C° 0.1 mm 2 mps 613 mmHg 84%
    21:00 -1°C° 0.1 mm 2 mps 613 mmHg 87%
    22:00 -1°C° 0 mm 2 mps 613 mmHg 87%
    23:00 -2°C° 0 mm 2 mps 613 mmHg 87%
    Show more